sat.trackr.live / text

‹ back to catalog

LEMUR-2-ROUNDTRIPPER

NORAD 62711 · 2025-009DG

PAYLOAD ACTIVE UNKNOWN

§ Identity

Operator
Country
US
Launch date
2025-01-14
Launch site
AFWTR
Launch vehicle
Mass (kg)
RCS (m²)

Purposes: earth_obs

External: N2YO · Heavens-Above · Gunter

§ Orbital elements

Epoch: 2026-09-19T11:19:44.337216Z

Period
95.68 min
Inclination
97.7182°
Eccentricity
0.0004033
Mean motion
15.05089401 rev/d
Perigee alt
548.4 km
Apogee alt
554.0 km
Semi-major
6,929.4 km
B*
3.6660e-4
RAAN
345.0753°
Arg perigee
161.9993°
Mean anomaly
198.1377°
Rev number
9,180

§ Raw data

LEMUR-2-ROUNDTRIPPER1 62711U 25009DG  26262.47204094  .00005153  00000+0  36660-3 0  99982 62711  97.7182 345.0753 0004033 161.9993 198.1377 15.05089401 91805

JSON: /api/v1/satellites/62711 · /tle

For live sub-satellite position, see the globe view (requires WebGL).

§ Visibility from observer

Set your observer location to see the next 7 days of passes ≥ 10°. The values pass through the URL so the page stays shareable.

No JS? Fill the form by hand. The geolocation button needs JavaScript.